| time (UTC) | temp F | wind direction | speed MPH | gust MPH | rain 1hr in | rain 24hr in | rain mn in | humidity % | barometer mb |
| 20260506173221 | 79 | 95 | 2.0 | 4.0 | 0.00 | 0.00 | 0.00 | 86 | 1011.0 |
| 20260506172718 | 79 | 69 | 1.0 | 3.0 | 0.00 | 0.00 | 0.00 | 85 | 1011.1 |
| 20260506172215 | 79 | 64 | 1.0 | 3.0 | 0.00 | 0.00 | 0.00 | 85 | 1011.4 |
| 20260506171713 | 79 | 58 | 1.0 | 3.0 | 0.00 | 0.00 | 0.00 | 85 | 1011.4 |
| 20260506171210 | 79 | 102 | 0.0 | 1.0 | 0.00 | 0.00 | 0.00 | 85 | 1011.6 |
| 20260506170707 | 79 | 66 | 0.0 | 1.0 | 0.00 | 0.00 | 0.00 | 86 | 1011.4 |
| 20260506170204 | 79 | 97 | 1.0 | 2.0 | 0.00 | 0.00 | 0.00 | 85 | 1011.7 |
| 20260506165702 | 79 | 90 | 0.0 | 1.0 | 0.00 | 0.00 | 0.00 | 85 | 1011.8 |
| 20260506165158 | 79 | 46 | 1.0 | 2.0 | 0.00 | 0.00 | 0.00 | 85 | 1011.8 |
| 20260506164655 | 79 | 99 | 0.0 | 2.0 | 0.00 | 0.00 | 0.00 | 86 | 1011.7 |
| 20260506164153 | 79 | 110 | 1.0 | 3.0 | 0.00 | 0.00 | 0.00 | 85 | 1011.7 |
| 20260506163649 | 79 | 99 | 1.0 | 2.0 | 0.00 | 0.00 | 0.00 | 86 | 1011.8 |
| 20260506163145 | 79 | 101 | 1.0 | 2.0 | 0.00 | 0.00 | 0.00 | 87 | 1011.6 |
| 20260506162641 | 78 | 95 | 1.0 | 2.0 | 0.00 | 0.00 | 0.00 | 87 | 1011.7 |
| 20260506162138 | 78 | 99 | 1.0 | 2.0 | 0.00 | 0.00 | 0.00 | 86 | 1011.7 |
| 20260506161635 | 79 | 86 | 1.0 | 2.0 | 0.00 | 0.00 | 0.00 | 86 | 1011.3 |
| 20260506161132 | 79 | 105 | 0.0 | 1.0 | 0.00 | 0.00 | 0.00 | 87 | 1011.4 |
| 20260506160630 | 78 | 103 | 0.0 | 1.0 | 0.00 | 0.00 | 0.00 | 87 | 1011.2 |
| 20260506160126 | 78 | 108 | 2.0 | 3.0 | 0.00 | 0.00 | 0.00 | 86 | 1011.2 |
| 20260506155625 | 79 | 97 | 2.0 | 4.0 | 0.00 | 0.00 | 0.00 | 86 | 1010.8 |
| 20260506155122 | 79 | 148 | 2.0 | 4.0 | 0.00 | 0.00 | 0.00 | 86 | 1010.8 |
| 20260506153224 | 79 | 115 | 3.0 | 4.0 | 0.00 | 0.00 | 0.00 | 86 | 1010.6 |
| 20260506152721 | 79 | 112 | 3.0 | 3.0 | 0.00 | 0.00 | 0.00 | 86 | 1010.5 |
| 20260506152218 | 79 | 112 | 2.0 | 3.0 | 0.00 | 0.00 | 0.00 | 87 | 1010.6 |
| 20260506151717 | 79 | 139 | 1.0 | 1.0 | 0.00 | 0.00 | 0.00 | 85 | 1010.8 |
| 20260506151213 | 79 | 108 | 0.0 | 0.0 | 0.00 | 0.00 | 0.00 | 86 | 1010.7 |
| 20260506150710 | 78 | 162 | 0.0 | 0.0 | 0.00 | 0.00 | 0.00 | 87 | 1010.6 |
| 20260506150207 | 78 | 126 | 1.0 | 2.0 | 0.00 | 0.00 | 0.00 | 87 | 1010.9 |
| 20260506145704 | 78 | 131 | 1.0 | 4.0 | 0.00 | 0.00 | 0.00 | 87 | 1010.5 |
| 20260506145200 | 78 | 140 | 1.0 | 3.0 | 0.00 | 0.00 | 0.00 | 89 | 1010.4 |
| 20260506144658 | 78 | 127 | 3.0 | 4.0 | 0.00 | 0.00 | 0.00 | 88 | 1010.2 |
| 20260506144155 | 78 | 120 | 3.0 | 7.0 | 0.00 | 0.00 | 0.00 | 88 | 1010.3 |
| 20260506143653 | 78 | 130 | 3.0 | 6.0 | 0.00 | 0.00 | 0.00 | 90 | 1010.2 |
| 20260506143150 | 77 | 122 | 3.0 | 8.0 | 0.00 | 0.00 | 0.00 | 90 | 1010.4 |
| 20260506142649 | 77 | 110 | 3.0 | 7.0 | 0.00 | 0.00 | 0.00 | 91 | 1010.0 |
| 20260506142146 | 77 | 125 | 1.0 | 4.0 | 0.00 | 0.00 | 0.00 | 92 | 1010.0 |
| 20260506141644 | 77 | 133 | 0.0 | 4.0 | 0.00 | 0.00 | 0.00 | 91 | 1010.0 |
| 20260506141142 | 77 | 124 | 4.0 | 8.0 | 0.00 | 0.00 | 0.00 | 91 | 1009.7 |
| 20260506140639 | 77 | 183 | 6.0 | 8.0 | 0.00 | 0.00 | 0.00 | 92 | 1009.6 |
| 20260506140136 | 76 | 106 | 6.0 | 8.0 | 0.00 | 0.00 | 0.00 | 92 | 1009.6 |
| 20260506135633 | 76 | 125 | 3.0 | 4.0 | 0.00 | 0.00 | 0.00 | 93 | 1009.6 |
| 20260506135129 | 76 | 128 | 5.0 | 7.0 | 0.00 | 0.00 | 0.00 | 94 | 1009.5 |
| 20260506134626 | 76 | 143 | 4.0 | 4.0 | 0.00 | 0.00 | 0.00 | 94 | 1009.7 |
| 20260506134121 | 76 | 149 | 1.0 | 2.0 | 0.00 | 0.00 | 0.00 | 95 | 1009.8 |
| 20260506133619 | 76 | 112 | 4.0 | 7.0 | 0.00 | 0.00 | 0.00 | 94 | 1009.7 |
| 20260506133116 | 76 | 111 | 2.0 | 4.0 | 0.00 | 0.00 | 0.00 | 95 | 1009.8 |
| 20260506132613 | 75 | 138 | 1.0 | 3.0 | 0.00 | 0.00 | 0.00 | 95 | 1009.8 |
| 20260506132110 | 75 | 130 | 4.0 | 4.0 | 0.00 | 0.00 | 0.00 | 95 | 1010.1 |
| 20260506131607 | 75 | 158 | 1.0 | 3.0 | 0.00 | 0.00 | 0.00 | 95 | 1010.0 |
| 20260506131103 | 75 | 177 | 1.0 | 4.0 | 0.00 | 0.00 | 0.00 | 95 | 1010.0 |
| 20260506130601 | 75 | 110 | 4.0 | 6.0 | 0.00 | 0.00 | 0.00 | 95 | 1009.8 |
| 20260506130058 | 75 | 130 | 1.0 | 2.0 | 0.00 | 0.00 | 0.00 | 95 | 1009.7 |
| 20260506125556 | 75 | 146 | 2.0 | 3.0 | 0.00 | 0.00 | 0.00 | 95 | 1009.7 |
| 20260506125054 | 75 | 117 | 3.0 | 4.0 | 0.00 | 0.00 | 0.00 | 95 | 1009.7 |
| 20260506124551 | 75 | 192 | 1.0 | 2.0 | 0.00 | 0.00 | 0.00 | 96 | 1009.8 |
| 20260506124049 | 75 | 151 | 1.0 | 2.0 | 0.00 | 0.00 | 0.00 | 96 | 1009.9 |
| 20260506123546 | 75 | 114 | 3.0 | 4.0 | 0.00 | 0.00 | 0.00 | 96 | 1009.7 |
| 20260506123045 | 75 | 144 | 4.0 | 6.0 | 0.00 | 0.00 | 0.00 | 96 | 1009.6 |
| 20260506122541 | 75 | 128 | 1.0 | 2.0 | 0.00 | 0.00 | 0.00 | 96 | 1009.6 |
| 20260506122039 | 75 | 148 | 4.0 | 4.0 | 0.00 | 0.00 | 0.00 | 96 | 1009.6 |
| 20260506121536 | 75 | 156 | 3.0 | 4.0 | 0.00 | 0.00 | 0.00 | 96 | 1009.6 |
| 20260506121032 | 75 | 130 | 1.0 | 2.0 | 0.00 | 0.00 | 0.00 | 96 | 1009.5 |
| 20260506120531 | 74 | 127 | 2.0 | 3.0 | 0.00 | 0.00 | 0.00 | 96 | 1009.6 |
| 20260506120028 | 74 | 135 | 2.0 | 4.0 | 0.00 | 0.00 | 0.00 | 96 | 1009.5 |
| 20260506115526 | 74 | 125 | 1.0 | 2.0 | 0.00 | 0.00 | 0.00 | 96 | 1009.5 |
| 20260506115024 | 74 | 144 | 2.0 | 4.0 | 0.00 | 0.00 | 0.00 | 96 | 1009.3 |
| 20260506114521 | 74 | 127 | 1.0 | 3.0 | 0.00 | 0.00 | 0.00 | 96 | 1009.3 |
| 20260506114019 | 74 | 120 | 4.0 | 6.0 | 0.00 | 0.00 | 0.00 | 97 | 1009.5 |
| 20260506113517 | 74 | 127 | 2.0 | 7.0 | 0.00 | 0.00 | 0.00 | 97 | 1009.3 |
| 20260506113014 | 74 | 130 | 2.0 | 3.0 | 0.00 | 0.00 | 0.00 | 97 | 1009.1 |
| 20260506112510 | 74 | 142 | 0.0 | 2.0 | 0.00 | 0.00 | 0.00 | 97 | 1009.1 |
| 20260506112008 | 74 | 142 | 2.0 | 6.0 | 0.00 | 0.00 | 0.00 | 97 | 1009.2 |
| 20260506111506 | 74 | 155 | 2.0 | 4.0 | 0.00 | 0.00 | 0.00 | 97 | 1009.2 |
| 20260506111002 | 74 | 135 | 2.0 | 3.0 | 0.00 | 0.00 | 0.00 | 97 | 1009.2 |
| 20260506110500 | 74 | 155 | 1.0 | 3.0 | 0.00 | 0.00 | 0.00 | 97 | 1009.0 |
| 20260506105957 | 74 | 135 | 2.0 | 3.0 | 0.00 | 0.00 | 0.00 | 97 | 1009.1 |
| 20260506105453 | 74 | 148 | 0.0 | 1.0 | 0.00 | 0.00 | 0.00 | 96 | 1008.9 |
| 20260506104951 | 74 | 134 | 0.0 | 3.0 | 0.00 | 0.00 | 0.00 | 96 | 1008.9 |
| 20260506104449 | 74 | 145 | 1.0 | 4.0 | 0.00 | 0.00 | 0.00 | 96 | 1008.9 |
| 20260506103947 | 74 | 139 | 0.0 | 3.0 | 0.00 | 0.00 | 0.00 | 96 | 1008.7 |
| 20260506103443 | 74 | 129 | 3.0 | 4.0 | 0.00 | 0.00 | 0.00 | 96 | 1008.7 |
| 20260506102940 | 74 | 178 | 4.0 | 7.0 | 0.00 | 0.00 | 0.00 | 96 | 1008.6 |
| 20260506102438 | 74 | 159 | 1.0 | 4.0 | 0.00 | 0.00 | 0.00 | 96 | 1008.7 |
| 20260506101935 | 74 | 175 | 2.0 | 8.0 | 0.00 | 0.00 | 0.00 | 96 | 1008.5 |
| 20260506101431 | 74 | 136 | 3.0 | 7.0 | 0.00 | 0.00 | 0.00 | 96 | 1008.7 |
| 20260506100929 | 74 | 110 | 1.0 | 2.0 | 0.00 | 0.00 | 0.00 | 96 | 1008.6 |
| 20260506100427 | 74 | 158 | 2.0 | 3.0 | 0.00 | 0.00 | 0.00 | 96 | 1008.6 |
| 20260506095925 | 74 | 166 | 2.0 | 10.0 | 0.00 | 0.00 | 0.00 | 96 | 1008.6 |
| 20260506095423 | 74 | 159 | 5.0 | 6.0 | 0.00 | 0.00 | 0.00 | 96 | 1008.7 |
| 20260506094919 | 74 | 112 | 2.0 | 7.0 | 0.00 | 0.00 | 0.00 | 96 | 1008.6 |
| 20260506094418 | 74 | 133 | 1.0 | 7.0 | 0.00 | 0.00 | 0.00 | 96 | 1008.4 |
| 20260506093915 | 74 | 158 | 2.0 | 4.0 | 0.00 | 0.00 | 0.00 | 96 | 1008.5 |
| 20260506093413 | 74 | 148 | 4.0 | 4.0 | 0.00 | 0.00 | 0.00 | 96 | 1008.4 |
| 20260506092910 | 74 | 133 | 1.0 | 3.0 | 0.00 | 0.00 | 0.00 | 96 | 1008.6 |
| 20260506092408 | 74 | 143 | 1.0 | 4.0 | 0.00 | 0.00 | 0.00 | 96 | 1008.4 |
| 20260506091904 | 74 | 89 | 2.0 | 7.0 | 0.00 | 0.00 | 0.00 | 96 | 1008.6 |
| 20260506091403 | 74 | 187 | 1.0 | 6.0 | 0.00 | 0.00 | 0.00 | 96 | 1008.4 |
| 20260506090859 | 74 | 153 | 4.0 | 9.0 | 0.00 | 0.00 | 0.00 | 96 | 1008.4 |
| 20260506090357 | 74 | 131 | 4.0 | 7.0 | 0.00 | 0.00 | 0.00 | 96 | 1008.4 |
| 20260506085854 | 74 | 136 | 3.0 | 6.0 | 0.00 | 0.00 | 0.00 | 96 | 1008.4 |
| 20260506085350 | 74 | 111 | 1.0 | 6.0 | 0.00 | 0.00 | 0.00 | 96 | 1008.3 |
| 20260506084847 | 74 | 163 | 5.0 | 7.0 | 0.00 | 0.00 | 0.00 | 96 | 1008.1 |
| 20260506084343 | 74 | 133 | 1.0 | 4.0 | 0.00 | 0.00 | 0.00 | 95 | 1008.4 |
| 20260506083840 | 74 | 221 | 4.0 | 7.0 | 0.00 | 0.00 | 0.00 | 95 | 1008.5 |
| 20260506083338 | 74 | 165 | 2.0 | 6.0 | 0.00 | 0.00 | 0.00 | 95 | 1008.3 |
| 20260506082835 | 74 | 121 | 3.0 | 8.0 | 0.00 | 0.00 | 0.00 | 95 | 1008.5 |
| 20260506082331 | 74 | 172 | 2.0 | 7.0 | 0.00 | 0.00 | 0.00 | 95 | 1008.5 |
| 20260506081827 | 74 | 137 | 4.0 | 6.0 | 0.00 | 0.00 | 0.00 | 95 | 1008.6 |
| 20260506081326 | 74 | 134 | 3.0 | 6.0 | 0.00 | 0.00 | 0.00 | 95 | 1008.4 |
| 20260506080823 | 74 | 162 | 2.0 | 3.0 | 0.00 | 0.00 | 0.00 | 95 | 1008.4 |
| 20260506080319 | 74 | 130 | 2.0 | 7.0 | 0.00 | 0.00 | 0.00 | 95 | 1008.4 |
| 20260506073303 | 74 | 145 | 2.0 | 3.0 | 0.00 | 0.00 | 0.00 | 95 | 1009.1 |
| 20260506072800 | 74 | 161 | 1.0 | 2.0 | 0.00 | 0.00 | 0.00 | 95 | 1009.2 |
| 20260506072258 | 74 | 126 | 1.0 | 3.0 | 0.00 | 0.00 | 0.00 | 95 | 1009.2 |
| 20260506071755 | 74 | 150 | 1.0 | 3.0 | 0.00 | 0.00 | 0.00 | 95 | 1009.1 |
| 20260506071253 | 74 | 134 | 0.0 | 7.0 | 0.00 | 0.00 | 0.00 | 95 | 1009.2 |
| 20260506070750 | 74 | 120 | 1.0 | 4.0 | 0.00 | 0.00 | 0.00 | 95 | 1009.1 |
| 20260506070247 | 74 | 178 | 2.0 | 2.0 | 0.00 | 0.00 | 0.00 | 95 | 1009.1 |
| 20260506062224 | 74 | 138 | 3.0 | 7.0 | 0.00 | 0.00 | 0.00 | 94 | 1009.3 |
| 20260506061720 | 75 | 125 | 3.0 | 4.0 | 0.00 | 0.00 | 0.00 | 94 | 1009.3 |
| 20260506061217 | 75 | 151 | 1.0 | 3.0 | 0.00 | 0.00 | 0.00 | 94 | 1009.4 |
| 20260506060716 | 75 | 117 | 1.0 | 3.0 | 0.00 | 0.00 | 0.00 | 94 | 1009.6 |
| 20260506060212 | 75 | 128 | 2.0 | 6.0 | 0.00 | 0.00 | 0.00 | 94 | 1009.4 |
| 20260506051144 | 75 | 190 | 3.0 | 7.0 | 0.00 | 0.00 | 0.00 | 92 | 1009.6 |
| 20260506050643 | 75 | 131 | 2.0 | 6.0 | 0.00 | 0.00 | 0.00 | 92 | 1009.5 |
| 20260506050139 | 75 | 134 | 3.0 | 3.0 | 0.00 | 0.00 | 0.00 | 92 | 1009.5 |
| 20260506045132 | 75 | 190 | 4.0 | 7.0 | 0.00 | 0.00 | 0.00 | 92 | 1009.5 |
| 20260506044631 | 75 | 159 | 2.0 | 4.0 | 0.00 | 0.00 | 0.00 | 92 | 1009.8 |
| 20260506044127 | 76 | 160 | 2.0 | 6.0 | 0.00 | 0.00 | 0.00 | 91 | 1009.7 |
| 20260506043624 | 76 | 117 | 2.0 | 7.0 | 0.00 | 0.00 | 0.00 | 91 | 1009.6 |
| 20260506043123 | 76 | 144 | 9.0 | 11.0 | 0.00 | 0.00 | 0.00 | 91 | 1009.5 |
| 20260506042621 | 76 | 130 | 6.0 | 9.0 | 0.00 | 0.00 | 0.00 | 91 | 1009.3 |
| 20260506042119 | 76 | 124 | 4.0 | 7.0 | 0.00 | 0.00 | 0.00 | 91 | 1009.4 |
| 20260506041618 | 76 | 152 | 2.0 | 6.0 | 0.00 | 0.00 | 0.00 | 91 | 1009.4 |
| 20260506041114 | 76 | 108 | 2.0 | 4.0 | 0.00 | 0.00 | 0.00 | 91 | 1009.3 |
| 20260506040612 | 76 | 140 | 1.0 | 4.0 | 0.00 | 0.00 | 0.00 | 91 | 1009.5 |
| 20260506040108 | 76 | 153 | 4.0 | 8.0 | 0.00 | 0.00 | 0.00 | 90 | 1009.3 |
| 20260506035605 | 76 | 137 | 3.0 | 4.0 | 0.00 | 0.00 | 0.00 | 90 | 1009.5 |
| 20260506035101 | 76 | 157 | 3.0 | 7.0 | 0.00 | 0.00 | 0.00 | 90 | 1009.4 |
| 20260506034559 | 76 | 148 | 2.0 | 3.0 | 0.00 | 0.00 | 0.00 | 90 | 1009.5 |
| 20260506034056 | 76 | 164 | 2.0 | 8.0 | 0.00 | 0.00 | 0.00 | 90 | 1009.4 |
| 20260506033553 | 76 | 117 | 5.0 | 7.0 | 0.00 | 0.00 | 0.00 | 90 | 1009.4 |
| 20260506033050 | 76 | 134 | 3.0 | 6.0 | 0.00 | 0.00 | 0.00 | 90 | 1009.2 |
| 20260506032547 | 76 | 135 | 5.0 | 7.0 | 0.00 | 0.00 | 0.00 | 90 | 1009.1 |
| 20260506032044 | 76 | 130 | 2.0 | 4.0 | 0.00 | 0.00 | 0.00 | 90 | 1008.9 |
| 20260506031542 | 76 | 138 | 1.0 | 6.0 | 0.00 | 0.00 | 0.00 | 90 | 1009.0 |
| 20260506031038 | 76 | 122 | 1.0 | 4.0 | 0.00 | 0.00 | 0.00 | 90 | 1009.2 |
| 20260506030536 | 76 | 170 | 2.0 | 4.0 | 0.00 | 0.00 | 0.00 | 90 | 1009.1 |
| 20260506030033 | 76 | 166 | 5.0 | 6.0 | 0.00 | 0.00 | 0.00 | 90 | 1008.8 |
| 20260506025530 | 76 | 148 | 3.0 | 4.0 | 0.00 | 0.00 | 0.00 | 90 | 1008.9 |
| 20260506025026 | 76 | 140 | 1.0 | 4.0 | 0.00 | 0.00 | 0.00 | 90 | 1008.8 |
| 20260506024523 | 76 | 139 | 2.0 | 3.0 | 0.00 | 0.00 | 0.00 | 90 | 1008.8 |
| 20260506024020 | 76 | 162 | 2.0 | 3.0 | 0.00 | 0.00 | 0.00 | 90 | 1008.5 |
| 20260506023516 | 76 | 127 | 1.0 | 3.0 | 0.00 | 0.00 | 0.00 | 90 | 1008.4 |
| 20260506023014 | 76 | 172 | 3.0 | 7.0 | 0.00 | 0.00 | 0.00 | 90 | 1008.4 |
| 20260506022511 | 77 | 213 | 2.0 | 4.0 | 0.00 | 0.00 | 0.00 | 90 | 1008.4 |
| 20260506022008 | 77 | 206 | 1.0 | 7.0 | 0.00 | 0.00 | 0.00 | 89 | 1008.3 |
| 20260506021506 | 77 | 156 | 4.0 | 8.0 | 0.00 | 0.00 | 0.00 | 89 | 1008.1 |
| 20260506021003 | 77 | 143 | 2.0 | 6.0 | 0.00 | 0.00 | 0.00 | 89 | 1008.2 |
| 20260506020500 | 77 | 160 | 4.0 | 11.0 | 0.00 | 0.00 | 0.00 | 89 | 1008.1 |
| 20260506015957 | 77 | 142 | 6.0 | 9.0 | 0.00 | 0.00 | 0.00 | 89 | 1008.0 |
| 20260506015455 | 77 | 167 | 2.0 | 6.0 | 0.00 | 0.00 | 0.00 | 89 | 1007.9 |
| 20260506014951 | 77 | 132 | 5.0 | 10.0 | 0.00 | 0.00 | 0.00 | 89 | 1007.8 |
| 20260506014448 | 77 | 137 | 4.0 | 7.0 | 0.00 | 0.00 | 0.00 | 88 | 1007.8 |
| 20260506013944 | 77 | 138 | 4.0 | 10.0 | 0.00 | 0.00 | 0.00 | 88 | 1007.7 |
| 20260506013443 | 77 | 186 | 3.0 | 8.0 | 0.00 | 0.00 | 0.00 | 88 | 1007.6 |
| 20260506012939 | 77 | 134 | 5.0 | 7.0 | 0.00 | 0.00 | 0.00 | 88 | 1007.5 |
| 20260506012435 | 77 | 158 | 4.0 | 8.0 | 0.00 | 0.00 | 0.00 | 87 | 1007.5 |
| 20260506011932 | 77 | 155 | 4.0 | 6.0 | 0.00 | 0.00 | 0.00 | 87 | 1007.4 |
| 20260506011430 | 77 | 133 | 5.0 | 10.0 | 0.00 | 0.00 | 0.00 | 87 | 1007.3 |
| 20260506010926 | 78 | 137 | 2.0 | 11.0 | 0.00 | 0.00 | 0.00 | 86 | 1007.4 |
| 20260506010426 | 78 | 209 | 4.0 | 7.0 | 0.00 | 0.00 | 0.00 | 86 | 1007.3 |
| 20260506005921 | 78 | 161 | 6.0 | 9.0 | 0.00 | 0.00 | 0.00 | 86 | 1007.3 |
| 20260506005419 | 78 | 141 | 4.0 | 9.0 | 0.00 | 0.00 | 0.00 | 85 | 1007.0 |
| 20260506004914 | 78 | 112 | 2.0 | 7.0 | 0.00 | 0.00 | 0.00 | 85 | 1007.0 |
| 20260506004413 | 78 | 116 | 5.0 | 7.0 | 0.00 | 0.00 | 0.00 | 85 | 1007.0 |
| 20260506003908 | 78 | 131 | 5.0 | 9.0 | 0.00 | 0.00 | 0.00 | 84 | 1006.9 |
| 20260506003404 | 78 | 127 | 2.0 | 8.0 | 0.00 | 0.00 | 0.00 | 83 | 1006.9 |
| 20260506002901 | 79 | 94 | 3.0 | 6.0 | 0.00 | 0.00 | 0.00 | 82 | 1006.9 |
| 20260506002357 | 79 | 136 | 3.0 | 6.0 | 0.00 | 0.00 | 0.00 | 82 | 1006.9 |
| 20260506001853 | 79 | 120 | 1.0 | 3.0 | 0.00 | 0.00 | 0.00 | 82 | 1007.0 |
| 20260506001350 | 79 | 186 | 1.0 | 4.0 | 0.00 | 0.00 | 0.00 | 82 | 1007.0 |
| 20260506000847 | 79 | 107 | 0.0 | 6.0 | 0.00 | 0.00 | 0.00 | 82 | 1006.9 |
| 20260506000346 | 79 | 177 | 1.0 | 6.0 | 0.00 | 0.00 | 0.00 | 81 | 1006.8 |
| 20260505235841 | 80 | 126 | 3.0 | 10.0 | 0.00 | 0.00 | 0.00 | 81 | 1006.9 |
| 20260505235339 | 80 | 299 | 2.0 | 8.0 | 0.00 | 0.00 | 0.00 | 80 | 1006.8 |
| 20260505234836 | 80 | 144 | 6.0 | 9.0 | 0.00 | 0.00 | 0.00 | 80 | 1006.7 |
| 20260505234334 | 80 | 124 | 4.0 | 11.0 | 0.00 | 0.00 | 0.00 | 80 | 1006.6 |
| 20260505233830 | 80 | 128 | 2.0 | 10.0 | 0.00 | 0.00 | 0.00 | 80 | 1006.6 |
| 20260505233328 | 80 | 118 | 4.0 | 13.0 | 0.00 | 0.00 | 0.00 | 79 | 1006.6 |
| 20260505232825 | 80 | 137 | 5.0 | 8.0 | 0.00 | 0.00 | 0.00 | 79 | 1006.7 |
| 20260505232323 | 80 | 141 | 1.0 | 9.0 | 0.00 | 0.00 | 0.00 | 79 | 1006.5 |
| 20260505231819 | 81 | 167 | 6.0 | 13.0 | 0.00 | 0.00 | 0.00 | 78 | 1006.5 |
| 20260505231318 | 81 | 148 | 4.0 | 10.0 | 0.00 | 0.00 | 0.00 | 78 | 1006.6 |
| 20260505230815 | 82 | 294 | 2.0 | 7.0 | 0.00 | 0.00 | 0.00 | 76 | 1006.6 |
| 20260505230312 | 82 | 188 | 3.0 | 7.0 | 0.00 | 0.00 | 0.00 | 77 | 1006.5 |
| 20260505225809 | 82 | 132 | 7.0 | 10.0 | 0.00 | 0.00 | 0.00 | 77 | 1006.7 |
| 20260505225306 | 82 | 102 | 6.0 | 7.0 | 0.00 | 0.00 | 0.00 | 77 | 1006.6 |
| 20260505224801 | 82 | 225 | 2.0 | 4.0 | 0.00 | 0.00 | 0.00 | 77 | 1006.6 |
| 20260505224259 | 82 | 142 | 5.0 | 13.0 | 0.00 | 0.00 | 0.00 | 77 | 1006.4 |
| 20260505223756 | 82 | 251 | 3.0 | 6.0 | 0.00 | 0.00 | 0.00 | 78 | 1006.3 |
| 20260505223253 | 83 | 112 | 4.0 | 9.0 | 0.00 | 0.00 | 0.00 | 76 | 1006.5 |
| 20260505222748 | 83 | 151 | 3.0 | 7.0 | 0.00 | 0.00 | 0.00 | 76 | 1006.6 |
| 20260505222245 | 83 | 157 | 5.0 | 11.0 | 0.00 | 0.00 | 0.00 | 74 | 1006.5 |
| 20260505221742 | 83 | 204 | 6.0 | 13.0 | 0.00 | 0.00 | 0.00 | 75 | 1006.6 |
| 20260505221239 | 83 | 177 | 2.0 | 6.0 | 0.00 | 0.00 | 0.00 | 74 | 1006.6 |
| 20260505220735 | 83 | 122 | 3.0 | 8.0 | 0.00 | 0.00 | 0.00 | 75 | 1006.7 |
| 20260505220233 | 83 | 228 | 5.0 | 8.0 | 0.00 | 0.00 | 0.00 | 74 | 1006.6 |
| 20260505215731 | 84 | 129 | 4.0 | 9.0 | 0.00 | 0.00 | 0.00 | 74 | 1006.6 |
| 20260505215229 | 84 | 111 | 3.0 | 8.0 | 0.00 | 0.00 | 0.00 | 71 | 1006.9 |
| 20260505214726 | 84 | 120 | 3.0 | 8.0 | 0.00 | 0.00 | 0.00 | 74 | 1006.8 |
| 20260505214224 | 85 | 211 | 4.0 | 7.0 | 0.00 | 0.00 | 0.00 | 73 | 1006.7 |
| 20260505213721 | 84 | 145 | 3.0 | 6.0 | 0.00 | 0.00 | 0.00 | 74 | 1006.7 |
| 20260505213218 | 84 | 269 | 2.0 | 10.0 | 0.00 | 0.00 | 0.00 | 74 | 1007.0 |
| 20260505212714 | 84 | 226 | 4.0 | 9.0 | 0.00 | 0.00 | 0.00 | 76 | 1007.2 |
| 20260505212211 | 83 | 130 | 2.0 | 10.0 | 0.00 | 0.00 | 0.00 | 75 | 1007.2 |
| 20260505211708 | 83 | 199 | 8.0 | 11.0 | 0.00 | 0.00 | 0.00 | 76 | 1007.2 |
| 20260505211205 | 84 | 178 | 6.0 | 14.0 | 0.00 | 0.00 | 0.00 | 73 | 1007.2 |
| 20260505210702 | 84 | 168 | 4.0 | 7.0 | 0.00 | 0.00 | 0.00 | 75 | 1007.4 |
| 20260505210159 | 85 | 94 | 3.0 | 9.0 | 0.00 | 0.00 | 0.00 | 75 | 1007.3 |
| 20260505205656 | 85 | 151 | 3.0 | 8.0 | 0.00 | 0.00 | 0.00 | 72 | 1007.6 |
| 20260505205154 | 84 | 163 | 2.0 | 8.0 | 0.00 | 0.00 | 0.00 | 76 | 1007.7 |
| 20260505204650 | 84 | 127 | 2.0 | 11.0 | 0.00 | 0.00 | 0.00 | 76 | 1007.8 |
| 20260505204148 | 85 | 138 | 6.0 | 11.0 | 0.00 | 0.00 | 0.00 | 71 | 1008.0 |
| 20260505203645 | 85 | 155 | 2.0 | 7.0 | 0.00 | 0.00 | 0.00 | 73 | 1008.0 |
| 20260505203142 | 84 | 133 | 2.0 | 7.0 | 0.00 | 0.00 | 0.00 | 75 | 1008.0 |
| 20260505202638 | 84 | 188 | 4.0 | 7.0 | 0.00 | 0.00 | 0.00 | 73 | 1008.1 |
| 20260505202134 | 84 | 108 | 4.0 | 7.0 | 0.00 | 0.00 | 0.00 | 74 | 1008.0 |
| 20260505201631 | 83 | 162 | 4.0 | 8.0 | 0.00 | 0.00 | 0.00 | 74 | 1008.2 |
| 20260505201129 | 83 | 175 | 8.0 | 11.0 | 0.00 | 0.00 | 0.00 | 74 | 1008.2 |
| 20260505200626 | 83 | 307 | 2.0 | 6.0 | 0.00 | 0.00 | 0.00 | 74 | 1008.5 |
| 20260505200123 | 84 | 195 | 1.0 | 9.0 | 0.00 | 0.00 | 0.00 | 73 | 1008.3 |
| 20260505195619 | 84 | 129 | 1.0 | 8.0 | 0.00 | 0.00 | 0.00 | 75 | 1008.4 |
| 20260505195117 | 83 | 141 | 1.0 | 3.0 | 0.00 | 0.00 | 0.00 | 77 | 1008.6 |
| 20260505194614 | 83 | 110 | 2.0 | 11.0 | 0.00 | 0.00 | 0.00 | 76 | 1008.8 |
| 20260505194109 | 84 | 120 | 2.0 | 10.0 | 0.00 | 0.00 | 0.00 | 74 | 1008.7 |
| 20260505193607 | 85 | 158 | 3.0 | 8.0 | 0.00 | 0.00 | 0.00 | 71 | 1008.8 |
| 20260505193104 | 85 | 229 | 5.0 | 8.0 | 0.00 | 0.00 | 0.00 | 71 | 1008.8 |
| 20260505192603 | 84 | 89 | 3.0 | 9.0 | 0.00 | 0.00 | 0.00 | 77 | 1008.7 |
| 20260505192100 | 82 | 173 | 3.0 | 6.0 | 0.00 | 0.00 | 0.00 | 80 | 1008.7 |
| 20260505191558 | 83 | 135 | 2.0 | 6.0 | 0.00 | 0.00 | 0.00 | 77 | 1009.1 |
| 20260505191056 | 83 | 124 | 1.0 | 2.0 | 0.00 | 0.00 | 0.00 | 75 | 1009.0 |
| 20260505190555 | 84 | 133 | 2.0 | 6.0 | 0.00 | 0.00 | 0.00 | 75 | 1008.9 |
| 20260505190052 | 84 | 211 | 2.0 | 4.0 | 0.00 | 0.00 | 0.00 | 75 | 1009.2 |
| 20260505185549 | 84 | 182 | 3.0 | 6.0 | 0.00 | 0.00 | 0.00 | 74 | 1009.0 |
| 20260505185045 | 85 | 225 | 2.0 | 6.0 | 0.00 | 0.00 | 0.00 | 74 | 1009.1 |
| 20260505184542 | 83 | 225 | 2.0 | 6.0 | 0.00 | 0.00 | 0.00 | 79 | 1009.2 |
| 20260505184039 | 82 | 213 | 4.0 | 6.0 | 0.00 | 0.00 | 0.00 | 78 | 1009.0 |
| 20260505183535 | 82 | 113 | 3.0 | 6.0 | 0.00 | 0.00 | 0.00 | 79 | 1009.4 |
| 20260505183033 | 81 | 185 | 3.0 | 9.0 | 0.00 | 0.00 | 0.00 | 80 | 1009.3 |
| 20260505182529 | 80 | 147 | 3.0 | 4.0 | 0.00 | 0.00 | 0.00 | 81 | 1009.3 |
| 20260505182026 | 80 | 102 | 1.0 | 6.0 | 0.00 | 0.00 | 0.00 | 81 | 1009.4 |
| 20260505181522 | 80 | 197 | 1.0 | 3.0 | 0.00 | 0.00 | 0.00 | 81 | 1009.5 |
| 20260505181020 | 80 | 133 | 4.0 | 8.0 | 0.00 | 0.00 | 0.00 | 80 | 1009.5 |
| 20260505180515 | 81 | 142 | 3.0 | 6.0 | 0.00 | 0.00 | 0.00 | 79 | 1009.4 |
| 20260505180014 | 81 | 152 | 2.0 | 7.0 | 0.00 | 0.00 | 0.00 | 80 | 1009.4 |
| 20260505175508 | 80 | 228 | 2.0 | 3.0 | 0.00 | 0.00 | 0.00 | 82 | 1009.5 |
| 20260505175006 | 80 | 222 | 2.0 | 6.0 | 0.00 | 0.00 | 0.00 | 79 | 1009.5 |
| 20260505174503 | 80 | 206 | 3.0 | 9.0 | 0.00 | 0.00 | 0.00 | 80 | 1009.6 |
| 20260505173959 | 80 | 229 | 2.0 | 7.0 | 0.00 | 0.00 | 0.00 | 80 | 1009.8 |